This is the latest recevied weather packets stored in our database for station/object W4CKA. If no packets are shown the sender has not sent any weather packets the latest 10 day(s).
| Time | Temp. | Humidity | Pressure | Rain* | Wind** | Luminosity | Snow |
|---|---|---|---|---|---|---|---|
| 1778253752 | 16.11° C | 59% | 1060.4 hPa | 0 mm | - | 602 W/m² | - |
| 1778253151 | 15.56° C | 55% | 1060.5 hPa | 0 mm | - | 598 W/m² | - |
| 1778252550 | 16.11° C | 66% | 1060.6 hPa | 0 mm | - | 641 W/m² | - |
| 1778251948 | 15.56° C | 74% | 1060.7 hPa | 0 mm | - | 621 W/m² | - |
| 1778251344 | 15° C | 78% | 1060.6 hPa | 0 mm | - | 679 W/m² | - |
| 1778250738 | 14.44° C | 77% | 1060.6 hPa | 0 mm | - | 588 W/m² | - |
| 1778250137 | 14.44° C | 79% | 1060.5 hPa | 0 mm | - | 634 W/m² | - |
| 1778249537 | 13.33° C | 79% | 1060.7 hPa | 0 mm | - | 573 W/m² | - |
| 1778248936 | 12.78° C | 82% | 1060.6 hPa | 0 mm | - | 493 W/m² | - |
| 1778248337 | 12.78° C | 82% | 1060.8 hPa | 0 mm | - | 476 W/m² | - |
| 1778247733 | 12.78° C | 80% | 1060.6 hPa | 0 mm | - | 420 W/m² | - |
| 1778247127 | 11.67° C | 84% | 1060.7 hPa | 0 mm | - | 363 W/m² | - |
| 1778246527 | 12.22° C | 85% | 1060.6 hPa | 0 mm | - | 329 W/m² | - |
| 1778245926 | 11.11° C | 86% | 1060.6 hPa | 0 mm | - | 273 W/m² | - |
| 1778245325 | 10° C | 87% | 1060.5 hPa | 0 mm | - | 355 W/m² | - |
| 1778244723 | 10° C | 88% | 1060.5 hPa | 0 mm | - | 263 W/m² | - |
| 1778244118 | 10° C | 93% | 1060.5 hPa | 0 mm | - | 273 W/m² | - |
| 1778243515 | 8.89° C | 99% | 1060.3 hPa | 0 mm | - | 201 W/m² | - |
| 1778242913 | 6.67° C | 99% | 1060.3 hPa | 0 mm | - | 188 W/m² | - |
| 1778242309 | 6.11° C | 99% | 1060.4 hPa | 0 mm | - | 136 W/m² | - |
| 1778241704 | 5.56° C | 99% | 1060.2 hPa | 0 mm | - | 110 W/m² | - |
| 1778241104 | 4.44° C | 99% | 1060 hPa | 0 mm | - | 94 W/m² | - |
| 1778240503 | 3.89° C | 99% | 1059.9 hPa | 0 mm | - | 32 W/m² | - |
| 1778239899 | 3.89° C | 99% | 1059.9 hPa | 0 mm | - | 28 W/m² | - |
| 1778239297 | 3.33° C | 99% | 1059.9 hPa | 0 mm | - | 23 W/m² | - |
* Rain latest hour (hover to see other rain measurements)
** Current wind speed in m/s (hover to see current wind gust speed)